Location: Korczew
(51.3586°N, 19.4491°E)
Time: 07:35:48
(UTC+00:00)

CZ-2C R/B - Pass Details

Date: 19 May 2025
Orbit: 782 x 867 km, 98.4° (Epoch: 16 June)

Event Time Altitude Azimuth Distance (km) Brightness Sun altitude
Exits shadow 22:36:30 12° 121° (ESE) 2,185 4.6 -18.7°
Maximum altitude 22:40:34 32° 62° (ENE) 1,324 4.0 -18.7°
Drops below altitude 10° 22:45:07 10° 1° (N) 2,352 6.3 -18.6°
Sets 22:47:38 0° 352° (N) 3,287 7.3 -18.6°
